GW1859 Weather Reports


Display with metric or nautical units.
time (UTC)temp
F
wind
direction
speed
MPH
gust
MPH
rain 1hr
in
rain 24hr
in
rain mn
in
humidity
%
barometer
mb
20260502191552 70 117 0.0 1.0 0.00 0.00 0.00 33 1022.4
20260502191050 69 80 0.0 1.0 0.00 0.00 0.00 34 1022.5
20260502190547 68 308 1.0 2.0 0.00 0.00 0.00 36 1022.5
20260502190044 67 142 1.0 2.0 0.00 0.00 0.00 38 1022.6
20260502185539 67 199 0.0 1.0 0.00 0.00 0.00 35 1022.9
20260502185036 66 358 3.0 6.0 0.00 0.00 0.00 36 1022.9
20260502184532 68 327 2.0 2.0 0.00 0.00 0.00 34 1023.0
20260502184028 68 121 0.0 0.0 0.00 0.00 0.00 39 1023.1
20260502183525 68 121 0.0 0.0 0.00 0.00 0.00 39 1022.9
20260502183021 68 114 1.0 1.0 0.00 0.00 0.00 38 1023.0
20260502182515 65 160 1.0 1.0 0.00 0.00 0.00 39 1023.0
20260502182012 66 264 1.0 2.0 0.00 0.00 0.00 35 1023.2
20260502181510 66 337 1.0 3.0 0.00 0.00 0.00 37 1023.3
20260502181009 68 125 0.0 1.0 0.00 0.00 0.00 38 1023.1
20260502180505 66 303 1.0 2.0 0.00 0.00 0.00 40 1023.4
20260502170424 62 136 0.0 0.0 0.00 0.00 0.00 41 1023.8
20260502163908 61 335 2.0 3.0 0.00 0.00 0.00 40 1024.1
20260502163404 64 114 1.0 1.0 0.00 0.00 0.00 38 1024.2
20260502162902 63 119 0.0 0.0 0.00 0.00 0.00 38 1024.0
20260502162358 63 94 1.0 2.0 0.00 0.00 0.00 38 1024.1
20260502161855 61 123 0.0 1.0 0.00 0.00 0.00 44 1024.0
20260502161351 62 118 0.0 0.0 0.00 0.00 0.00 46 1024.1
20260502160849 61 67 2.0 2.0 0.00 0.00 0.00 44 1024.1
20260502160347 63 108 1.0 2.0 0.00 0.00 0.00 39 1024.1
20260502152328 61 135 0.0 0.0 0.00 0.00 0.00 52 1024.2
20260502151826 60 133 0.0 0.0 0.00 0.00 0.00 48 1024.1
20260502151322 60 130 0.0 0.0 0.00 0.00 0.00 52 1024.0
20260502150820 58 128 0.0 0.0 0.00 0.00 0.00 52 1024.5
20260502150316 59 126 0.0 0.0 0.00 0.00 0.00 53 1024.6
20260502130705 44 126 0.0 0.0 0.00 0.00 0.00 98 1023.2
20260502130202 44 126 0.0 0.0 0.00 0.00 0.00 98 1023.6
20260502123648 41 126 0.0 0.0 0.00 0.00 0.00 98 1023.3
20260502123145 41 126 0.0 0.0 0.00 0.00 0.00 98 1023.4
20260502122641 41 126 0.0 0.0 0.00 0.00 0.00 98 1023.1
20260502122138 41 126 0.0 0.0 0.00 0.00 0.00 98 1022.9
20260502121636 41 126 0.0 0.0 0.00 0.00 0.00 98 1022.8
20260502121133 41 126 0.0 0.0 0.00 0.00 0.00 98 1022.7
20260502120629 41 126 0.0 0.0 0.00 0.00 0.00 98 1022.6
20260502120126 41 126 0.0 0.0 0.00 0.00 0.00 98 1022.9
20260502115624 41 125 0.0 0.0 0.00 0.00 0.00 98 1022.8
20260502115120 41 125 0.0 0.0 0.00 0.00 0.00 98 1022.6
20260502114616 41 125 0.0 0.0 0.00 0.00 0.00 98 1022.6
20260502114114 41 125 0.0 0.0 0.00 0.00 0.00 98 1022.5
20260502113611 41 125 0.0 0.0 0.00 0.00 0.00 98 1022.4
20260502113109 41 125 0.0 0.0 0.00 0.00 0.00 98 1022.4
20260502112607 41 125 0.0 0.0 0.00 0.00 0.00 98 1022.4
20260502112104 41 125 0.0 0.0 0.00 0.00 0.00 98 1022.4
20260502111601 42 125 0.0 0.0 0.00 0.00 0.00 98 1022.1
20260502111059 42 125 0.0 0.0 0.00 0.00 0.00 98 1022.3
20260502110556 42 125 0.0 0.0 0.00 0.00 0.00 98 1022.3
20260502110054 42 125 0.0 0.0 0.00 0.00 0.00 98 1022.1
20260502105551 42 125 0.0 0.0 0.00 0.00 0.00 98 1022.0
20260502105048 42 125 0.0 0.0 0.00 0.00 0.00 98 1022.1
20260502104545 42 125 0.0 0.0 0.00 0.00 0.00 98 1022.3
20260502104043 42 125 0.0 0.0 0.00 0.00 0.00 98 1022.0
20260502103540 43 125 0.0 0.0 0.00 0.00 0.00 98 1022.3
20260502103038 43 125 0.0 0.0 0.00 0.00 0.00 98 1022.2
20260502102534 43 125 0.0 0.0 0.00 0.00 0.00 98 1022.1
20260502102032 43 125 0.0 0.0 0.00 0.00 0.00 98 1022.2
20260502101529 43 125 0.0 0.0 0.00 0.00 0.00 98 1022.2
20260502101027 43 125 0.0 0.0 0.00 0.00 0.00 98 1022.1
20260502100526 44 125 0.0 0.0 0.00 0.00 0.00 98 1022.0
20260502091500 45 124 0.0 0.0 0.00 0.00 0.00 98 1021.6
20260502090958 45 122 0.0 0.0 0.00 0.00 0.00 98 1021.7
20260502090454 44 102 0.0 0.0 0.00 0.00 0.00 98 1021.6
20260502071349 48 134 0.0 0.0 0.00 0.00 0.00 93 1022.0
20260502070847 49 137 0.0 1.0 0.00 0.00 0.00 92 1021.7
20260502070344 49 94 0.0 0.0 0.00 0.00 0.00 93 1021.4
20260502065843 50 140 0.0 1.0 0.00 0.00 0.00 92 1022.1
20260502065340 49 180 1.0 1.0 0.00 0.00 0.00 93 1022.5
20260502064838 49 121 0.0 0.0 0.00 0.00 0.00 93 1022.6
20260502064336 49 141 0.0 0.0 0.00 0.00 0.00 93 1022.3
20260502063833 50 169 0.0 0.0 0.00 0.00 0.00 92 1022.1
20260502063331 50 146 0.0 0.0 0.00 0.00 0.00 92 1022.0
20260502062828 50 135 0.0 0.0 0.00 0.00 0.00 92 1021.4
20260502062325 50 138 0.0 0.0 0.00 0.00 0.00 92 1021.4
20260502061824 50 129 0.0 0.0 0.00 0.00 0.00 92 1021.5
20260502061322 50 129 0.0 0.0 0.00 0.00 0.00 92 1021.5
20260502060817 50 129 0.0 0.0 0.00 0.00 0.00 92 1021.3
20260502060312 50 129 0.0 0.0 0.00 0.00 0.00 92 1021.3
20260502055810 50 129 0.0 0.0 0.00 0.00 0.00 92 1021.2
20260502055308 50 129 0.0 0.0 0.00 0.00 0.00 91 1021.4
20260502054808 51 129 0.0 0.0 0.00 0.00 0.00 91 1021.4
20260502054305 51 127 0.0 0.0 0.00 0.00 0.00 90 1021.7
20260502053802 51 128 0.0 0.0 0.00 0.00 0.00 90 1022.0
20260502053259 51 129 0.0 0.0 0.00 0.00 0.00 89 1021.8
20260502052757 51 128 0.0 0.0 0.00 0.00 0.00 89 1021.4
20260502052255 52 124 0.0 0.0 0.00 0.00 0.00 88 1021.4
20260502051752 52 130 0.0 1.0 0.00 0.00 0.00 86 1021.2
20260502051251 52 123 0.0 0.0 0.00 0.00 0.00 82 1021.2
20260502050746 52 122 0.0 0.0 0.00 0.00 0.00 82 1020.9
20260502050242 52 53 1.0 2.0 0.00 0.00 0.00 82 1020.7
20260502045740 53 135 0.0 0.0 0.00 0.00 0.00 84 1020.6
20260502045237 53 135 0.0 0.0 0.00 0.00 0.00 82 1020.6
20260502044734 53 136 0.0 0.0 0.00 0.00 0.00 81 1020.5
20260502044230 53 135 0.0 0.0 0.00 0.00 0.00 81 1020.5
20260502043727 54 136 0.0 0.0 0.00 0.00 0.00 78 1020.3
20260502043225 54 136 0.0 0.0 0.00 0.00 0.00 75 1020.5
20260502042724 55 139 0.0 0.0 0.00 0.00 0.00 70 1020.6
20260502042222 55 142 0.0 0.0 0.00 0.00 0.00 70 1020.6
20260502041719 55 136 0.0 0.0 0.00 0.00 0.00 69 1020.4
20260502041216 55 133 0.0 0.0 0.00 0.00 0.00 72 1020.3
20260502040713 55 129 0.0 0.0 0.00 0.00 0.00 71 1019.8
20260502040210 55 129 0.0 0.0 0.00 0.00 0.00 72 1020.0
20260502035706 55 128 0.0 0.0 0.00 0.00 0.00 69 1020.3
20260502035203 55 130 0.0 0.0 0.00 0.00 0.00 68 1020.7
20260502034700 55 130 0.0 0.0 0.00 0.00 0.00 67 1020.8
20260502034159 55 130 0.0 0.0 0.00 0.00 0.00 67 1020.8
20260502033656 55 129 0.0 0.0 0.00 0.00 0.00 66 1020.9
20260502033154 55 129 0.0 0.0 0.00 0.00 0.00 66 1021.0
20260502032650 55 129 0.0 0.0 0.00 0.00 0.00 66 1020.6
20260502032146 55 129 0.0 0.0 0.00 0.00 0.00 66 1020.6
20260502031644 55 129 0.0 0.0 0.00 0.00 0.00 66 1020.9
20260502031142 55 129 0.0 0.0 0.00 0.00 0.00 66 1020.7
20260502030641 55 129 0.0 0.0 0.00 0.00 0.00 65 1020.7
20260502030138 55 129 0.0 0.0 0.00 0.00 0.00 65 1020.6
20260502025635 55 129 0.0 0.0 0.00 0.00 0.00 64 1020.6
20260502025133 55 130 0.0 0.0 0.00 0.00 0.00 64 1020.6
20260502024631 55 130 0.0 0.0 0.00 0.00 0.00 64 1020.6
20260502024129 55 130 0.0 0.0 0.00 0.00 0.00 64 1020.4
20260502023627 55 130 0.0 0.0 0.00 0.00 0.00 64 1020.5
20260502023123 55 130 0.0 0.0 0.00 0.00 0.00 64 1020.1
20260502022620 55 130 0.0 0.0 0.00 0.00 0.00 64 1020.3
20260502022118 55 130 0.0 0.0 0.00 0.00 0.00 64 1020.1
20260502021615 55 130 0.0 0.0 0.00 0.00 0.00 63 1019.9
20260502021111 56 130 0.0 0.0 0.00 0.00 0.00 63 1019.8
20260502020609 56 130 0.0 0.0 0.00 0.00 0.00 61 1019.9
20260502020106 56 130 0.0 0.0 0.00 0.00 0.00 61 1020.0
20260502015604 56 130 0.0 0.0 0.00 0.00 0.00 60 1020.0
20260502015100 57 130 0.0 0.0 0.00 0.00 0.00 59 1019.9
20260502014557 57 130 0.0 0.0 0.00 0.00 0.00 58 1019.7
20260502014054 57 128 0.0 0.0 0.00 0.00 0.00 57 1019.8
20260502013549 58 129 0.0 0.0 0.00 0.00 0.00 56 1019.6
20260502013046 58 129 0.0 0.0 0.00 0.00 0.00 57 1019.6
20260502012543 58 131 0.0 0.0 0.00 0.00 0.00 56 1019.5
20260502012041 59 133 0.0 0.0 0.00 0.00 0.00 55 1019.6
20260502011537 59 129 0.0 0.0 0.00 0.00 0.00 54 1019.8
20260502011034 59 129 0.0 0.0 0.00 0.00 0.00 55 1019.5
20260502010532 59 132 0.0 0.0 0.00 0.00 0.00 54 1019.3
20260502010027 59 116 0.0 0.0 0.00 0.00 0.00 54 1019.0
20260502005526 59 131 0.0 0.0 0.00 0.00 0.00 53 1018.9
20260502005023 60 118 0.0 0.0 0.00 0.00 0.00 54 1019.0
20260502004518 60 342 0.0 0.0 0.00 0.00 0.00 53 1018.7
20260502004015 60 126 0.0 0.0 0.00 0.00 0.00 54 1018.9
20260502003514 60 127 0.0 0.0 0.00 0.00 0.00 53 1018.9
20260502003010 60 38 3.0 6.0 0.00 0.00 0.00 51 1018.8
20260502002507 61 129 0.0 0.0 0.00 0.00 0.00 52 1018.8
20260502002004 61 113 0.0 0.0 0.00 0.00 0.00 52 1018.8
20260502001501 61 125 0.0 0.0 0.00 0.00 0.00 51 1018.9
20260502000959 61 132 0.0 0.0 0.00 0.00 0.00 51 1018.7
20260502000457 61 135 0.0 0.0 0.00 0.00 0.00 51 1018.6
20260501235953 61 125 0.0 0.0 0.00 0.00 0.00 51 1018.6
20260501235449 61 39 1.0 1.0 0.00 0.00 0.00 51 1018.6
20260501234944 62 123 0.0 0.0 0.00 0.00 0.00 51 1018.6
20260501234441 62 141 0.0 0.0 0.00 0.00 0.00 52 1018.8
20260501233940 62 130 0.0 0.0 0.00 0.00 0.00 52 1018.6
20260501233437 62 129 0.0 0.0 0.00 0.00 0.00 51 1018.4
20260501232932 62 118 1.0 1.0 0.00 0.00 0.00 51 1018.6
20260501232430 62 118 1.0 1.0 0.00 0.00 0.00 51 1018.4
20260501231927 62 277 2.0 3.0 0.00 0.00 0.00 50 1018.4
20260501231426 62 122 1.0 2.0 0.00 0.00 0.00 50 1018.3
20260501230923 63 329 2.0 7.0 0.00 0.00 0.00 49 1018.0
20260501230422 63 123 0.0 0.0 0.00 0.00 0.00 48 1018.2
20260501225919 65 129 1.0 2.0 0.00 0.00 0.00 45 1018.0
20260501225417 67 20 4.0 7.0 0.00 0.00 0.00 42 1018.0
20260501224912 69 288 3.0 3.0 0.00 0.00 0.00 35 1017.8
20260501224410 70 267 0.0 1.0 0.00 0.00 0.00 34 1017.7
20260501223906 72 97 0.0 0.0 0.00 0.00 0.00 32 1017.8
20260501223402 72 172 0.0 0.0 0.00 0.00 0.00 33 1017.6
20260501222858 70 125 0.0 1.0 0.00 0.00 0.00 33 1017.6
20260501222356 70 298 3.0 3.0 0.00 0.00 0.00 33 1017.7
20260501221852 70 161 0.0 1.0 0.00 0.00 0.00 31 1017.5
20260501221349 69 235 1.0 1.0 0.00 0.00 0.00 34 1017.5
20260501220847 70 300 2.0 3.0 0.00 0.00 0.00 32 1017.6
20260501220344 70 204 2.0 3.0 0.00 0.00 0.00 31 1017.4
20260501215841 72 304 1.0 2.0 0.00 0.00 0.00 30 1017.6
20260501215337 71 147 0.0 0.0 0.00 0.00 0.00 31 1017.7
20260501214832 72 105 0.0 1.0 0.00 0.00 0.00 31 1017.7
20260501214328 72 298 0.0 0.0 0.00 0.00 0.00 30 1017.9
20260501213819 73 146 0.0 0.0 0.00 0.00 0.00 29 1017.8
20260501213315 73 228 0.0 0.0 0.00 0.00 0.00 28 1017.6
20260501212811 71 159 0.0 0.0 0.00 0.00 0.00 29 1017.9
20260501212308 69 18 0.0 0.0 0.00 0.00 0.00 30 1018.0
20260501211805 69 302 1.0 2.0 0.00 0.00 0.00 31 1018.3
20260501211302 72 154 0.0 0.0 0.00 0.00 0.00 30 1018.1
20260501210759 72 267 3.0 3.0 0.00 0.00 0.00 28 1018.3
20260501210256 72 24 2.0 5.0 0.00 0.00 0.00 28 1018.2
20260501205752 71 172 0.0 0.0 0.00 0.00 0.00 27 1018.2
20260501205249 71 153 0.0 0.0 0.00 0.00 0.00 29 1018.4
20260501204746 71 132 0.0 0.0 0.00 0.00 0.00 33 1018.5
20260501204243 71 210 0.0 0.0 0.00 0.00 0.00 28 1018.7
20260501203739 70 340 2.0 2.0 0.00 0.00 0.00 29 1018.7
20260501203237 69 133 0.0 0.0 0.00 0.00 0.00 30 1018.7
20260501202733 69 16 0.0 0.0 0.00 0.00 0.00 31 1019.0
20260501202230 68 347 0.0 0.0 0.00 0.00 0.00 30 1019.0
20260501201727 69 330 2.0 2.0 0.00 0.00 0.00 31 1019.2
20260501201224 70 126 0.0 0.0 0.00 0.00 0.00 32 1019.0
20260501200721 71 150 0.0 0.0 0.00 0.00 0.00 28 1019.2
20260501200218 70 148 0.0 0.0 0.00 0.00 0.00 30 1019.2
20260501195715 70 150 1.0 1.0 0.00 0.00 0.00 29 1019.5
20260501195211 68 191 1.0 1.0 0.00 0.00 0.00 29 1019.7
20260501194707 69 353 1.0 3.0 0.00 0.00 0.00 31 1019.7
20260501194203 70 350 0.0 0.0 0.00 0.00 0.00 29 1019.8
20260501193700 69 188 1.0 2.0 0.00 0.00 0.00 29 1020.3
20260501193158 68 78 0.0 1.0 0.00 0.00 0.00 33 1020.2
20260501192655 68 78 0.0 1.0 0.00 0.00 0.00 33 1020.4
20260501192152 68 78 0.0 1.0 0.00 0.00 0.00 33 1020.3